Back to catalog

STARLINK-37018

AliveCommunicationsSSO
NORAD 68103·PAYLOAD·🇺🇸 United States

Launched Mar 8, 2026 from Vandenberg Space Force Base

Loading…

Next Passes (next 24 hours)

TLE

FreshSource: CelesTrak SupGP

Epoch: Sep 14, 2026, 15:58 UTC

1 68103C 26044C   26257.66576389 -.00004543  00000+0 -14103-3 0  2572
2 68103  97.2855 216.6335 0002016  88.8609 115.1887 15.33436866    17

Track STARLINK-37018 in real time with AllMySat

Download on the App Store